Location: Buchloe
(48.0161°N, 10.7316°E)
Time: 14:51:23
(UTC+02:00)

ISS - Visible Passes

Search period start: 23 October 2021 00:00
Search period end: 01 November 2021 23:00
Orbit: 417 x 423 km, 51.6° (Epoch: 23 October)

Date Brightness Start Highest point End Pass type
(mag) Time Alt. Az. Time Alt. Az. Time Alt. Az.
23 Oct -1.3 06:15:05 10° S 06:17:37 20° SE 06:20:10 10° E visible
24 Oct -1.0 05:29:37 12° SSE 05:30:34 13° SE 05:32:15 10° ESE visible
24 Oct -3.4 07:03:32 10° SW 07:06:52 67° SSE 07:10:14 10° ENE visible
25 Oct -2.9 06:17:49 21° SSW 06:19:41 45° SSE 06:22:56 10° ENE visible
26 Oct -2.1 05:32:52 30° SE 05:32:52 30° SE 05:35:33 10° E visible
26 Oct -3.7 07:05:53 10° WSW 07:09:12 66° NNW 07:12:33 10° ENE visible
27 Oct -0.3 04:47:48 11° E 04:47:48 11° E 04:48:00 10° E visible
27 Oct -3.8 06:20:47 39° WSW 06:21:55 86° NNW 06:25:18 10° ENE visible
28 Oct -2.5 05:35:37 42° E 05:35:37 42° E 05:38:00 10° ENE visible
28 Oct -3.2 07:08:36 12° W 07:11:37 46° N 07:14:53 10° ENE visible
29 Oct -0.3 04:50:23 12° ENE 04:50:23 12° ENE 04:50:40 10° ENE visible
29 Oct -3.4 06:23:22 39° WNW 06:24:15 53° NNW 06:27:33 10° ENE visible
30 Oct -2.3 05:38:04 36° NE 05:38:04 36° NE 05:40:15 10° ENE visible
30 Oct -3.0 07:11:02 12° WNW 07:14:02 43° N 07:17:16 10° ENE visible
31 Oct -0.3 03:52:43 12° ENE 03:52:43 12° ENE 03:52:57 10° ENE visible
31 Oct -3.1 05:25:42 34° NW 05:26:37 43° N 05:29:52 10° ENE visible
01 Nov -2.1 04:40:20 32° NE 04:40:20 32° NE 04:42:30 10° ENE visible
01 Nov -3.3 06:13:19 12° WNW 06:16:24 53° NNE 06:19:42 10° E visible
